Hourly Data Report for October 06, 2015

All times are specified in Local Standard Time (LST). Add 1 hour to adjust for Daylight Saving Time where and when it is observed.

KAMLOOPS A
BRITISH COLUMBIA

50°42'09.000" N
120°26'55.000" W
345.30 m
1163781
71887
YKA

Download Data

Hourly Data (October 2015)
Hourly Data Report for October 6, 2015
Temp Definition
°C
Dew Point Temp Definition
°C
Rel Hum Definition
%
Wind Dir Definition
10's deg

Wind Spd Definition
km/h
Visibility Definition
km
Stn Press Definition
kPa
Hmdx Definition


Wind Chill Definition


Weather Definition


TIME
00:00 Legend Double Dagger 8.4 5.9 84 10 15 64.4 97.48     LegendNANA
01:00 Legend Double Dagger 8.4 5.7 83 12 14 64.4 97.51     Mostly Cloudy
02:00 Legend Double Dagger 7.1 5.3 88 11 12 64.4 97.53     LegendNANA
03:00 Legend Double Dagger 5.8 3.5 85 36 1 64.4 97.52     LegendNANA
04:00 Legend Double Dagger 5.5 4.0 90 10 6 64.4 97.54     Mostly Cloudy
05:00 Legend Double Dagger 5.4 4.4 93 8 4 64.4 97.55     LegendNANA
06:00 Legend Double Dagger 5.0 3.8 92 8 12 64.4 97.55     LegendNANA
07:00 Legend Double Dagger 5.7 4.4 91 36 2 48.3 97.59     Mostly Cloudy
08:00 Legend Double Dagger 8.4 6.7 89 7 7 48.3 97.63     LegendNANA
09:00 Legend Double Dagger 9.1 6.6 84 8 10 48.3 97.63     LegendNANA
10:00 Legend Double Dagger 9.8 6.9 82 7 5 64.4 97.59     Mostly Cloudy
11:00 Legend Double Dagger 11.3 7.3 76 5 6 64.4 97.53     LegendNANA
12:00 Legend Double Dagger 11.7 7.5 75 36 1 64.4 97.54     LegendNANA
13:00 Legend Double Dagger 11.7 8.8 82 24 9 64.4 97.55     Rain
14:00 Legend Double Dagger 12.7 8.4 75 36 2 64.4 97.48     Rain Showers
15:00 Legend Double Dagger 12.7 8.8 77 10 8 64.4 97.41     LegendNANA
16:00 Legend Double Dagger 12.8 9.1 78 24 5 64.4 97.38     Mostly Cloudy
17:00 Legend Double Dagger 12.4 9.3 81 13 4 64.4 97.36     LegendNANA
18:00 Legend Double Dagger 11.3 9.1 86 26 4 64.4 97.38     LegendNANA
19:00 Legend Double Dagger 11.1 9.0 87 36 2 64.4 97.39     Cloudy
20:00 Legend Double Dagger 11.0 9.1 88 31 5 64.4 97.41     LegendNANA
21:00 Legend Double Dagger 10.5 9.1 91 36 2 64.4 97.46     LegendNANA
22:00 Legend Double Dagger 10.1 8.4 89 29 4 64.4 97.48     Cloudy
23:00 Legend Double Dagger 9.6 8.1 90 32 5 64.4 97.52     LegendNANA

Notes on Data Quality.

Legend

  • E = Estimated
  • M = Missing
  • NA = Not Available
  • ‡ = Partner data that is not subject to review by the National Climate Archives
Date modified: